Regional Weather Roundup
Issued by NWS

Home | Current Version | Previous Version | Text Only | Print | Product List | Glossary Off
Versions: 1 2 3 4 5 6 7 8 9 10 11 12 13 14 15 16 17 18 19 20 21 22 23 24 25 26 27 28 29 30 31 32 33 34 35 36 37 38 39 40 41 42 43 44 45 46 47 48 49 50

000
ASUS43 KTOP 070008
RWRKS

WEATHER ROUNDUP FOR KANSAS
NATIONAL WEATHER SERVICE GOODLAND KS
600 PM CST FRI DEC 06 2019

NOTE:  "FAIR" INDICATES FEW OR NO CLOUDS BELOW 12,000 FEET WITH NO
SIGNIFICANT WEATHER AND/OR OBSTRUCTIONS TO VISIBILITY.

KSZ001>006-013>018-027>032-041>047-070100-
NORTHWEST KANSAS

CITY           SKY/WX    TMP DP  RH WIND       PRES   REMARKS
GOODLAND       CLEAR     36  30  79 S10       30.24S WCI  28
6HR MIN TEMP:  31; 6HR MAX TEMP:  45;

HAYS           CLEAR     37  23  56 S6        30.33S
HILL CITY      CLEAR     38  23  55 S3        30.30F
6HR MIN TEMP:  36; 6HR MAX TEMP:  46;

RUSSELL        CLEAR     35  22  58 SE6       30.32S
6HR MIN TEMP:  34; 6HR MAX TEMP:  43;

$$

KSZ061>065-074>080-084>089-070100-
SOUTHWEST KANSAS

CITY           SKY/WX    TMP DP  RH WIND       PRES   REMARKS
DODGE CITY     CLEAR     36  24  62 SE8       30.31S
6HR MIN TEMP:  36; 6HR MAX TEMP:  47;

ELKHART        PTCLDY    38  34  85 SE10      30.29S WCI  31
GARDEN CITY    CLEAR     35  27  72 S7        30.30S
6HR MIN TEMP:  35; 6HR MAX TEMP:  46;

GREAT BEND     CLEAR     34  22  61 SE6       30.34S
LIBERAL        CLEAR     38  29  70 SE7       30.32S
PRATT          CLEAR     39  21  47 E3        30.34F
6HR MIN TEMP:  39; 6HR MAX TEMP:  46;

$$

KSZ066>073-081>083-090>101-070100-
SOUTHEAST KANSAS

CITY           SKY/WX    TMP DP  RH WIND       PRES   REMARKS
CHANUTE        CLEAR     38  27  64 N5        30.37R
6HR MIN TEMP:  38; 6HR MAX TEMP:  47;

COFFEYVILLE    CLEAR     38  28  67 N7        30.35R
6HR MIN TEMP:  38; 6HR MAX TEMP:  49;

HUTCHINSON     CLEAR     30  21  69 CALM      30.36R
6HR MIN TEMP:  30; 6HR MAX TEMP:  46;

MEDICINE LODGE   N/A     38  24  57 CALM      30.35R
NEWTON         CLEAR     36  21  54 N5        30.36S
PARSONS        CLEAR     36  28  73 N3        30.37R
6HR MIN TEMP:  35; 6HR MAX TEMP:  48;

WICHITA INTL   PTCLDY    40  22  48 N6        30.36R
6HR MIN TEMP:  40; 6HR MAX TEMP:  48;

WICHITA JABRA  CLEAR     37  21  52 N5        30.36R
6HR MIN TEMP:  37; 6HR MAX TEMP:  46;

WICHITA MCCONL CLEAR     37  19  48 NE8       30.36R
WINFIELD       CLEAR     34  22  61 N6        30.36R
6HR MIN TEMP:  33; 6HR MAX TEMP:  48;

$$

KSZ007>012-019>026-033>040-048>060-102>105-070100-
NORTHEAST KANSAS

CITY           SKY/WX    TMP DP  RH WIND       PRES   REMARKS
CONCORDIA      CLEAR     38  22  52 CALM      30.35S
6HR MIN TEMP:  38; 6HR MAX TEMP:  44;

EMPORIA        CLEAR     36  23  59 NE6       30.36S
6HR MIN TEMP:  36; 6HR MAX TEMP:  44;

LAWRENCE       CLEAR     30  22  72 N3        30.38S
6HR MIN TEMP:  29; 6HR MAX TEMP:  43;

MANHATTAN      CLEAR     33  21  61 N3        30.37S
6HR MIN TEMP:  33; 6HR MAX TEMP:  44;

MARYSVILLE     CLEAR     32  21  64 CALM      30.36F
OLATHE IND     CLEAR     31  22  69 NW7       30.38R
6HR MIN TEMP:  30; 6HR MAX TEMP:  42;

OLATHE EXE     CLEAR     37  23  56 N3        30.37R
6HR MIN TEMP:  37; 6HR MAX TEMP:  42;

SALINA         CLEAR     37  22  54 CALM      30.37S
6HR MIN TEMP:  37; 6HR MAX TEMP:  44;

TOPEKA BILLARD CLEAR     33  22  63 N5        30.39R
6HR MIN TEMP:  33; 6HR MAX TEMP:  42;

TOPEKA FORBES  CLEAR     33  22  63 CALM      30.37S
6HR MIN TEMP:  32; 6HR MAX TEMP:  42;

$$



USA.gov is the U.S. government's official web portal to all federal, state and local government web resources and services.